This is the latest recevied weather packets stored in our database for station/object SQ7RAF-15. If no packets are shown the sender has not sent any weather packets the latest 10 day(s).
| Time | Temp. | Humidity | Pressure | Rain* | Wind** | Luminosity | Snow |
|---|---|---|---|---|---|---|---|
| 1778174423 | 11.67° C | 90% | 1013.1 hPa | 0 mm | - | 10 W/m² | - |
| 1778174123 | 11.67° C | 90% | 1013 hPa | 0 mm | - | 12 W/m² | - |
| 1778173832 | 11.67° C | 90% | 1013 hPa | 0 mm | - | 15 W/m² | - |
| 1778173547 | 11.67° C | 90% | 1012.8 hPa | 0 mm | - | 13 W/m² | - |
| 1778173224 | 11.67° C | 90% | 1012.7 hPa | 0 mm | - | 18 W/m² | - |
| 1778172936 | 11.67° C | 90% | 1012.7 hPa | 0 mm | - | 25 W/m² | - |
| 1778172616 | 11.67° C | 90% | 1012.7 hPa | 0 mm | - | 31 W/m² | - |
| 1778172328 | 11.67° C | 90% | 1012.6 hPa | 0 mm | - | 39 W/m² | - |
| 1778172040 | 11.67° C | 90% | 1012.6 hPa | 0 mm | - | 40 W/m² | - |
| 1778171720 | 11.67° C | 90% | 1012.5 hPa | 0 mm | - | 27 W/m² | - |
| 1778171432 | 12.22° C | 90% | 1012.4 hPa | 0 mm | - | 38 W/m² | - |
| 1778171144 | 12.22° C | 90% | 1012.5 hPa | 0 mm | - | 39 W/m² | - |
| 1778170824 | 12.22° C | 90% | 1012.4 hPa | 0 mm | - | 32 W/m² | - |
| 1778170536 | 12.22° C | 90% | 1012.5 hPa | 0 mm | - | 27 W/m² | - |
| 1778170232 | 12.22° C | 89% | 1012.4 hPa | 0 mm | - | 31 W/m² | - |
| 1778169944 | 12.22° C | 89% | 1012.3 hPa | 0 mm | - | 37 W/m² | - |
| 1778169624 | 12.78° C | 89% | 1012.1 hPa | 0 mm | - | 43 W/m² | - |
| 1778169336 | 12.78° C | 88% | 1012.2 hPa | 0 mm | - | 52 W/m² | - |
| 1778169016 | 12.78° C | 88% | 1012.2 hPa | 0 mm | - | 71 W/m² | - |
| 1778168728 | 12.78° C | 88% | 1012.1 hPa | 0 mm | - | 68 W/m² | - |
| 1778168440 | 13.33° C | 88% | 1012.2 hPa | 0 mm | - | 76 W/m² | - |
| 1778167528 | 13.33° C | 88% | 1012.1 hPa | 0 mm | - | 103 W/m² | - |
| 1778167224 | 13.33° C | 88% | 1011.9 hPa | 0 mm | - | 87 W/m² | - |
| 1778166920 | 13.33° C | 88% | 1011.9 hPa | 0 mm | - | 84 W/m² | - |
| 1778166632 | 13.89° C | 87% | 1011.9 hPa | 0 mm | - | 74 W/m² | - |
* Rain latest hour (hover to see other rain measurements)
** Current wind speed in m/s (hover to see current wind gust speed)